GFSNGP_850_temp_333.txt.gz
Temp
20 20 20 20 19 17 14 18 18 19 21 22 21 18 16 15 13 12 11 10 9 8 7 7 7 6 6 6 5 5 4 3 2 2 1 1 0 -1 -1 -2 -2 -2 -2 -3
17 20 20 19 20 20 19 19 20 20 20 20 17 16 15 14 13 11 10 9 8 7 7 6 6 5 5 4 4 3 2 2 1 1 0 -1 -1 -1 -2 -2 -3 -3 -4 -4
17 19 19 17 19 20 20 20 19 18 20 18 18 14 14 12 11 10 9 8 7 7 6 6 5 4 4 3 2 2 1 1 -0 -1 -1 -1 -2 -2 -3 -3 -4 -4 -4 -5
16 17 11 19 20 20 19 21 20 19 19 17 15 12 12 11 10 9 8 7 6 6 5 4 4 3 3 2 1 1 0 -0 -1 -2 -2 -2 -3 -3 -4 -4 -5 -5 -5 -5
12 16 19 20 20 19 18 19 20 19 18 15 12 11 10 10 9 8 7 6 5 5 4 3 3 2 2 1 0 -0 -1 -2 -2 -3 -3 -3 -4 -4 -5 -5 -5 -5 -6 -6
15 15 15 19 19 18 19 18 18 18 17 15 13 15 11 9 8 7 6 5 4 3 3 2 2 1 1 0 -1 -2 -2 -3 -3 -4 -4 -4 -5 -5 -6 -6 -6 -6 -6 -6
15 16 18 21 18 18 16 17 17 17 16 15 15 13 9 7 6 6 5 4 3 2 2 1 1 0 0 -1 -2 -3 -3 -3 -4 -4 -5 -5 -6 -6 -6 -6 -7 -7 -7 -7
15 13 13 19 17 17 17 16 16 15 15 12 9 8 7 7 6 5 4 3 2 2 1 0 0 -0 -1 -2 -3 -4 -4 -4 -5 -5 -6 -6 -7 -7 -7 -7 -7 -7 -8 -8
16 16 18 18 18 17 16 15 15 14 12 10 9 8 7 6 5 4 3 3 2 1 -1 -1 -2 -2 -3 -4 -4 -4 -5 -5 -5 -6 -7 -7 -7 -7 -7 -8 -8 -9 -9 -10
17 18 17 17 15 16 16 15 13 12 10 9 8 7 6 5 4 4 3 2 1 0 -1 -2 -3 -4 -4 -5 -5 -5 -6 -6 -6 -7 -8 -7 -7 -7 -8 -9 -10 -11 -11 -11
17 18 17 16 15 15 15 13 12 11 10 9 7 6 6 5 4 3 2 1 0 -1 -2 -3 -4 -5 -6 -6 -6 -6 -6 -7 -7 -8 -7 -8 -8 -8 -9 -10 -11 -12 -12 -13
17 18 16 16 15 14 13 11 11 10 9 8 7 6 5 4 3 2 1 0 -1 -2 -3 -4 -5 -6 -7 -7 -7 -8 -7 -7 -8 -8 -8 -8 -8 -8 -9 -10 -11 -11 -11 -12
18 17 16 16 15 13 12 11 10 9 8 7 6 5 4 3 2 1 -0 -1 -2 -3 -4 -5 -6 -7 -7 -8 -8 -8 -8 -9 -9 -8 -8 -8 -9 -9 -9 -9 -10 -11 -11 -12
14 13 13 14 13 12 11 9 8 8 7 6 5 4 3 2 -1 -1 -1 -2 -3 -4 -5 -6 -7 -8 -7 -8 -9 -9 -9 -9 -9 -9 -9 -9 -10 -9 -9 -10 -10 -10 -10 -11
12 13 13 12 11 10 9 8 7 7 5 4 3 2 1 -0 -1 -2 -3 -4 -5 -6 -6 -7 -8 -8 -8 -8 -10 -10 -10 -10 -11 -10 -10 -10 -10 -10 -10 -10 -10 -10 -11 -11
12 12 11 10 10 9 7 7 7 5 4 3 2 0 -0 -1 -2 -3 -4 -5 -5 -6 -7 -6 -8 -8 -8 -9 -10 -10 -10 -10 -11 -11 -10 -10 -10 -10 -10 -11 -11 -11 -11 -11
11 10 9 9 8 7 7 6 5 4 3 1 0 -0 -1 -2 -4 -4 -5 -6 -7 -7 -8 -9 -9 -8 -8 -9 -9 -10 -10 -11 -11 -11 -11 -11 -11 -11 -11 -11 -11 -12 -12 -12
12 12 10 9 7 6 6 5 4 2 1 1 -1 -2 -3 -3 -4 -5 -6 -5 -5 -7 -9 -9 -8 -8 -10 -9 -9 -12 -11 -12 -12 -12 -12 -12 -13 -12 -12 -12 -12 -13 -13 -13
11 10 9 8 6 6 5 3 2 1 0 -1 -2 -3 -3 -4 -5 -5 -6 -5 -6 -9 -10 -9 -8 -9 -11 -9 -10 -12 -12 -13 -12 -12 -13 -13 -12 -12 -13 -13 -13 -13 -14 -14
10 9 7 6 5 4 3 2 1 -0 -2 -3 -3 -3 -3 -4 -4 -4 -6 -8 -9 -10 -10 -8 -9 -11 -11 -10 -10 -13 -13 -13 -13 -13 -13 -14 -13 -14 -13 -14 -14 -14 -15 -15
8 7 5 4 3 2 1 0 -1 -2 -3 -3 -1 -1 -2 -4 -5 -5 -6 -9 -10 -8 -8 -9 -9 -10 -11 -10 -12 -14 -14 -14 -14 -14 -14 -14 -15 -15 -15 -15 -15 -15 -16 -16
5 4 3 2 1 0 -0 -1 -2 -2 -1 -1 -1 -2 -3 -4 -6 -6 -8 -10 -8 -9 -9 -10 -10 -10 -11 -11 -14 -14 -14 -14 -15 -15 -15 -16 -16 -16 -16 -16 -16 -16 -16 -17
3 4 2 1 1 -0 -2 -3 -1 1 0 -1 -2 -3 -4 -4 -6 -7 -9 -9 -8 -9 -10 -10 -10 -11 -11 -12 -12 -13 -14 -15 -16 -16 -16 -17 -17 -17 -17 -17 -17 -17 -17 -17
0 0 0 -1 -0 -1 -2 -2 -1 -1 -2 -3 -4 -4 -4 -7 -9 -10 -9 -8 -9 -10 -10 -10 -11 -11 -12 -12 -12 -13 -14 -16 -16 -15 -17 -16 -18 -18 -18 -17 -17 -17 -16 -16
-1 -1 -0 -1 -2 -2 -2 -2 -2 -4 -4 -5 -5 -6 -7 -9 -8 -8 -8 -9 -9 -10 -10 -11 -12 -12 -12 -13 -13 -13 -14 -16 -14 -14 -15 -15 -17 -17 -17 -16 -15 -15 -14 -15
-3 -3 -3 -3 -2 -2 -1 -3 -3 -6 -6 -6 -7 -8 -9 -9 -8 -8 -9 -9 -10 -10 -11 -12 -12 -12 -13 -13 -14 -14 -14 -15 -15 -15 -15 -15 -15 -16 -15 -15 -15 -15 -14 -14
-4 -4 -4 -5 -4 -2 -4 -5 -5 -7 -7 -7 -7 -9 -8 -8 -8 -9 -9 -10 -11 -11 -12 -12 -13 -13 -13 -14 -14 -14 -14 -15 -15 -15 -15 -15 -15 -15 -15 -15 -15 -15 -15 -15

GFSNGP_850_temp_336.txt.gz
Temp
21 22 21 20 19 18 14 17 17 18 20 22 20 18 16 15 12 12 11 10 9 8 8 7 7 7 7 6 6 5 4 3 2 1 1 1 0 -0 -1 -2 -2 -3 -3 -4
19 20 21 20 21 20 18 18 19 19 20 20 17 16 15 15 13 12 11 9 9 8 7 7 6 6 5 5 4 3 2 2 1 1 0 -0 -1 -2 -2 -3 -3 -4 -4 -5
17 20 20 17 20 20 21 21 20 18 20 19 17 16 15 14 12 11 10 9 8 7 6 6 5 4 4 3 2 2 1 0 -0 -0 -1 -2 -2 -3 -3 -4 -4 -5 -5 -5
15 18 11 18 22 22 21 21 21 21 21 18 15 14 13 12 11 10 9 8 7 6 6 5 4 3 3 2 1 1 0 -1 -1 -2 -2 -3 -3 -4 -5 -5 -5 -5 -5 -6
12 16 18 20 21 20 19 19 21 21 18 15 13 12 12 11 10 9 8 7 6 5 5 4 3 3 2 1 0 -0 -1 -2 -2 -3 -3 -4 -4 -5 -5 -6 -6 -6 -6 -6
15 14 15 20 21 21 20 18 21 20 17 14 13 13 11 10 9 8 7 6 5 4 3 3 2 2 1 -0 -1 -1 -2 -2 -3 -4 -4 -5 -5 -6 -6 -6 -6 -6 -6 -7
14 15 18 21 20 20 17 17 19 19 16 15 14 15 10 9 8 7 6 5 4 3 2 2 1 1 0 -1 -2 -2 -3 -3 -4 -5 -5 -5 -6 -6 -6 -6 -7 -7 -8 -8
14 12 13 20 19 17 18 18 18 17 16 13 11 10 9 8 7 6 5 4 3 2 2 1 1 0 -1 -2 -3 -3 -4 -4 -5 -5 -6 -6 -6 -7 -7 -7 -8 -8 -9 -9
15 15 18 20 19 18 17 17 17 15 12 11 10 9 8 7 6 5 4 4 2 1 0 -1 -1 -1 -2 -3 -4 -4 -4 -5 -5 -6 -6 -7 -7 -7 -7 -8 -9 -10 -10 -10
18 19 19 19 18 17 17 16 15 13 11 10 9 8 7 6 5 5 4 3 2 0 -1 -2 -3 -3 -4 -4 -4 -5 -5 -6 -6 -7 -7 -7 -7 -7 -8 -9 -9 -10 -11 -11
18 19 19 18 17 17 16 15 13 12 11 10 9 8 7 6 5 5 3 2 1 0 -1 -2 -3 -4 -5 -5 -5 -5 -6 -6 -7 -7 -7 -7 -7 -8 -8 -9 -9 -10 -10 -11
16 18 18 17 16 16 15 13 12 11 10 9 8 7 7 6 5 4 3 2 0 -1 -2 -3 -4 -5 -5 -5 -5 -5 -7 -7 -8 -8 -7 -7 -8 -8 -8 -9 -9 -10 -10 -11
18 18 18 18 16 15 14 13 11 11 9 9 8 7 6 5 4 3 2 0 -1 -2 -3 -4 -5 -5 -5 -5 -5 -7 -7 -8 -8 -8 -8 -8 -9 -9 -9 -9 -9 -9 -10 -10
17 17 16 17 16 15 13 12 11 10 9 8 7 6 5 4 3 1 0 -1 -2 -3 -4 -5 -5 -5 -5 -5 -6 -7 -8 -8 -9 -9 -9 -9 -9 -9 -9 -9 -9 -10 -10 -10
16 16 15 16 14 13 12 11 10 9 8 7 6 5 3 2 1 0 -1 -2 -3 -4 -5 -5 -6 -5 -5 -6 -6 -8 -9 -9 -9 -9 -9 -9 -9 -10 -10 -10 -10 -10 -11 -11
15 14 14 13 13 12 11 9 9 8 7 6 4 3 2 1 -0 -2 -3 -4 -3 -5 -4 -5 -6 -6 -6 -6 -7 -9 -9 -9 -10 -10 -10 -10 -10 -10 -10 -11 -11 -11 -11 -11
14 13 13 12 12 11 10 9 8 7 5 4 3 2 1 -0 -2 -3 -4 -4 -5 -5 -6 -6 -7 -6 -6 -6 -7 -9 -10 -10 -11 -10 -11 -11 -11 -12 -11 -11 -11 -12 -12 -12
14 14 13 12 11 10 9 8 7 5 4 3 2 1 -0 -2 -3 -4 -4 -4 -4 -6 -7 -6 -6 -7 -7 -7 -8 -9 -11 -11 -11 -11 -12 -12 -12 -12 -12 -12 -12 -13 -13 -13
14 13 11 11 10 9 8 7 6 4 3 2 1 -0 -1 -2 -3 -3 -3 -4 -5 -7 -8 -6 -7 -8 -8 -8 -8 -9 -11 -12 -12 -12 -12 -12 -12 -12 -13 -13 -13 -13 -14 -14
13 12 11 10 9 8 7 5 4 3 1 1 -0 -1 -2 -3 -3 -2 -4 -5 -7 -8 -7 -7 -8 -9 -9 -8 -9 -10 -12 -12 -13 -13 -13 -13 -13 -14 -14 -14 -14 -14 -14 -15
12 11 10 9 7 6 5 4 3 1 0 0 -0 -1 -1 -2 -3 -4 -5 -6 -7 -7 -7 -8 -8 -8 -8 -9 -10 -12 -12 -13 -13 -14 -14 -14 -14 -15 -15 -15 -15 -15 -16 -16
11 10 9 7 6 4 3 2 2 1 -0 -1 -1 -1 -1 -3 -4 -5 -7 -7 -6 -8 -8 -8 -8 -9 -9 -10 -11 -11 -12 -13 -14 -14 -15 -15 -16 -16 -16 -16 -16 -16 -16 -17
9 8 7 5 5 3 1 1 1 1 -0 -1 -1 -1 -2 -2 -4 -5 -6 -7 -7 -8 -8 -8 -9 -9 -10 -10 -11 -11 -12 -14 -14 -14 -15 -15 -16 -17 -17 -17 -17 -17 -17 -17
7 6 5 4 3 2 0 -1 -0 -1 -1 -2 -3 -3 -3 -4 -7 -8 -7 -7 -7 -8 -8 -9 -9 -10 -10 -11 -11 -11 -12 -14 -13 -14 -14 -14 -15 -16 -16 -17 -17 -16 -16 -16
5 4 3 2 1 -0 -0 -1 -1 -2 -3 -4 -4 -5 -5 -6 -5 -6 -7 -7 -8 -8 -8 -9 -10 -10 -11 -11 -11 -12 -13 -14 -14 -14 -14 -14 -15 -15 -16 -15 -15 -15 -15 -16
3 1 -0 -1 -1 -1 -1 -2 -3 -5 -4 -5 -6 -6 -6 -6 -6 -6 -7 -8 -8 -8 -8 -10 -11 -11 -11 -11 -12 -13 -13 -14 -14 -14 -14 -15 -15 -15 -15 -15 -15 -15 -15 -16
-2 -2 -3 -3 -3 -3 -3 -4 -4 -4 -4 -4 -5 -6 -5 -6 -6 -7 -8 -8 -9 -9 -10 -10 -11 -11 -12 -12 -13 -13 -14 -14 -14 -14 -14 -15 -15 -15 -15 -15 -15 -15 -15 -16

GFSNGP_850_temp_342.txt.gz
Temp
14 16 15 15 15 12 12 13 12 14 14 13 12 11 10 10 9 9 8 8 8 8 7 7 7 7 7 6 6 6 6 6 5 3 3 2 2 1 0 -1 -2 -4 -5 -5
16 16 15 16 15 13 13 14 14 14 14 14 14 11 10 9 8 8 7 7 7 7 7 6 6 6 6 5 5 5 5 4 3 2 2 2 1 -0 -2 -3 -4 -5 -6 -6
13 16 15 13 14 14 14 14 14 12 13 11 10 10 10 9 8 8 7 7 6 6 6 5 5 5 5 5 4 4 3 3 3 2 1 0 -1 -2 -3 -4 -6 -6 -6 -7
8 12 9 14 15 16 16 15 13 15 12 12 12 11 10 10 9 8 7 7 6 6 5 5 4 4 4 3 3 3 3 2 1 0 -1 -2 -3 -4 -5 -6 -6 -7 -7 -7
8 9 12 15 16 17 16 15 15 13 12 11 11 10 9 10 10 9 7 7 6 6 5 4 4 4 4 3 3 2 2 1 -0 -1 -2 -3 -4 -5 -6 -6 -7 -7 -8 -8
6 10 11 12 16 19 17 14 12 12 10 9 11 8 6 8 9 8 7 6 6 5 4 4 4 3 3 3 2 1 1 -0 -1 -2 -3 -4 -5 -6 -7 -7 -7 -8 -8 -9
5 9 10 13 16 18 14 11 12 13 11 11 11 10 9 8 8 7 7 6 5 4 4 4 3 3 2 2 1 0 -1 -2 -3 -4 -5 -6 -6 -7 -7 -7 -8 -8 -8 -9
6 6 11 16 16 15 14 16 14 12 11 11 12 10 9 8 7 6 5 5 4 4 3 2 2 2 2 1 -0 -1 -2 -3 -3 -5 -5 -6 -7 -7 -7 -8 -8 -8 -9 -9
9 9 13 16 17 18 18 18 13 13 11 12 11 9 8 7 6 6 5 4 4 4 2 1 1 1 1 0 -1 -2 -3 -3 -4 -5 -6 -7 -7 -7 -8 -8 -8 -9 -9 -10
12 13 14 17 18 17 18 18 17 15 13 12 10 8 7 6 6 5 4 4 3 3 2 1 0 0 0 -0 -1 -2 -3 -4 -5 -6 -7 -7 -7 -8 -8 -9 -9 -9 -10 -10
11 13 15 16 17 17 17 17 16 13 13 13 11 8 8 6 5 5 4 3 3 3 2 1 0 0 -0 -1 -2 -3 -4 -5 -5 -6 -7 -7 -8 -8 -9 -9 -9 -10 -10 -10
10 13 12 15 17 17 17 16 16 14 10 10 12 9 7 6 6 5 4 3 2 2 1 1 0 -0 -1 -2 -2 -3 -4 -5 -6 -6 -7 -8 -8 -8 -9 -9 -10 -10 -10 -11
11 11 13 16 15 17 17 16 15 14 14 11 8 9 7 6 5 4 4 3 2 2 1 1 -0 -1 -2 -2 -3 -4 -4 -5 -6 -7 -7 -8 -9 -9 -9 -10 -10 -10 -10 -11
12 11 14 13 13 16 17 15 14 13 12 11 9 7 7 6 5 4 3 3 2 1 0 -0 -1 -2 -2 -4 -4 -4 -5 -6 -6 -7 -8 -8 -9 -9 -10 -10 -11 -11 -11 -12
12 12 12 13 13 13 14 14 12 11 10 9 8 8 7 5 4 4 3 2 1 1 -0 -1 -1 -2 -3 -4 -4 -4 -5 -6 -7 -8 -9 -9 -10 -10 -10 -11 -11 -11 -12 -12
11 11 11 12 11 12 13 12 12 10 9 8 8 7 6 5 4 3 2 2 2 0 -1 -1 -2 -3 -4 -5 -5 -5 -6 -7 -7 -9 -9 -10 -10 -10 -11 -11 -12 -12 -12 -13
9 10 11 12 10 11 13 14 13 12 10 9 7 6 5 5 4 2 1 1 1 0 -1 -1 -2 -3 -4 -5 -6 -6 -6 -7 -9 -9 -9 -10 -10 -11 -12 -12 -12 -13 -13 -14
9 10 10 11 12 10 10 11 11 11 10 8 7 6 5 5 4 2 1 -0 -1 -1 -2 -2 -3 -4 -5 -6 -6 -6 -7 -8 -9 -9 -10 -11 -11 -12 -12 -13 -13 -13 -14 -14
10 10 10 11 12 12 11 11 11 11 9 8 7 6 5 4 4 2 0 -1 -1 -1 -2 -3 -4 -5 -5 -6 -7 -7 -8 -8 -9 -10 -10 -11 -12 -12 -12 -13 -14 -15 -14 -15
9 9 9 10 11 12 11 11 10 9 8 7 6 5 4 3 2 2 -0 -1 -1 -2 -3 -3 -4 -5 -6 -7 -7 -8 -8 -9 -10 -10 -10 -11 -12 -12 -13 -13 -14 -14 -15 -15
10 11 10 10 10 11 11 12 11 9 8 7 6 5 4 2 1 1 -1 -2 -3 -4 -4 -4 -6 -6 -7 -7 -8 -8 -9 -9 -10 -11 -11 -11 -11 -12 -13 -13 -14 -14 -14 -15
9 9 9 9 10 10 10 11 10 9 7 5 5 5 3 1 -0 -1 -1 -1 -2 -4 -5 -5 -6 -7 -7 -8 -8 -9 -9 -10 -11 -11 -11 -11 -12 -13 -13 -13 -14 -14 -14 -15
9 8 9 9 10 10 8 8 8 9 7 6 5 4 2 1 0 -0 -2 -4 -4 -4 -6 -6 -7 -7 -7 -8 -9 -9 -9 -10 -11 -11 -11 -12 -13 -13 -13 -14 -14 -14 -14 -14
6 9 8 9 10 9 8 6 6 5 6 4 4 2 2 0 -2 -2 -2 -2 -5 -5 -6 -7 -7 -7 -8 -9 -9 -9 -10 -11 -11 -11 -12 -12 -13 -14 -14 -14 -14 -14 -14 -15
4 4 7 9 8 7 7 5 4 3 3 3 1 -0 -0 -0 1 -2 -3 -4 -5 -6 -7 -7 -7 -8 -9 -9 -9 -10 -11 -11 -11 -12 -12 -13 -14 -14 -14 -14 -14 -15 -15 -15
2 2 2 2 6 7 6 5 3 2 2 0 -1 -1 -1 -2 -4 -3 -4 -5 -6 -7 -8 -7 -8 -9 -9 -10 -10 -11 -11 -11 -11 -12 -13 -13 -14 -14 -15 -14 -15 -15 -15 -15
-1 -1 -0 -1 1 0 1 3 3 2 1 1 -0 -3 -4 -4 -4 -4 -5 -5 -6 -7 -7 -8 -9 -9 -9 -10 -10 -11 -11 -11 -12 -13 -13 -14 -14 -15 -15 -15 -15 -15 -15 -16

GFSNGP_850_temp_345.txt.gz
Temp
13 15 14 15 14 11 12 12 12 14 13 12 11 9 9 9 8 8 8 8 8 8 8 7 7 7 7 7 6 6 6 5 5 4 3 3 2 1 1 0 -1 -2 -4 -4
14 13 14 15 14 12 12 13 13 14 12 13 12 10 9 9 8 8 7 7 7 7 7 6 6 6 6 6 6 5 5 5 4 3 3 2 1 1 -0 -1 -2 -4 -5 -6
12 14 14 11 13 13 13 13 13 12 13 10 9 10 9 8 8 8 7 7 7 7 7 6 6 6 6 5 5 4 4 4 3 2 2 1 0 -1 -1 -3 -4 -5 -6 -7
8 11 9 13 14 15 14 13 12 14 11 11 11 12 10 9 10 8 7 7 6 6 6 6 5 5 5 4 4 4 4 3 2 2 1 0 -1 -2 -4 -5 -6 -6 -7 -7
8 9 11 15 15 14 14 14 13 13 11 10 10 9 8 9 10 10 8 7 7 6 6 5 5 5 4 3 3 3 3 2 2 1 -0 -1 -2 -3 -5 -6 -7 -7 -7 -8
5 10 10 11 15 17 16 13 14 13 9 8 10 7 6 9 9 8 8 7 6 5 5 5 4 4 3 3 3 3 2 2 1 -1 -2 -2 -3 -5 -6 -7 -7 -8 -8 -9
5 9 10 12 15 16 14 12 14 14 11 9 11 11 12 9 8 9 8 7 6 5 5 4 3 3 3 3 2 2 2 0 -1 -2 -2 -3 -4 -6 -7 -7 -8 -8 -9 -9
5 6 11 15 15 15 13 16 16 14 13 10 12 12 12 9 8 8 7 6 5 4 4 3 3 3 3 2 2 2 1 -1 -2 -3 -3 -4 -5 -6 -7 -8 -8 -9 -9 -9
8 8 12 15 17 17 17 18 15 15 12 12 12 11 9 8 8 7 7 5 5 4 3 2 2 2 2 2 2 1 -0 -2 -3 -3 -4 -5 -6 -7 -7 -8 -9 -9 -9 -10
11 12 12 16 17 17 18 18 18 17 15 12 12 11 9 8 7 7 6 5 4 4 3 2 1 1 1 1 1 0 -1 -3 -3 -4 -5 -6 -7 -7 -8 -8 -9 -9 -10 -10
10 12 13 15 15 16 17 17 17 15 14 12 12 10 10 8 7 6 5 4 4 3 3 2 1 1 1 1 -0 -1 -2 -3 -4 -5 -6 -7 -7 -7 -8 -9 -9 -9 -10 -10
8 9 9 12 14 16 16 17 17 16 12 11 12 13 9 7 7 6 5 4 3 3 3 2 1 1 1 0 -1 -2 -3 -4 -5 -6 -6 -7 -7 -8 -8 -9 -9 -10 -10 -10
8 9 10 12 13 14 14 15 17 16 15 13 11 11 9 8 7 5 5 4 3 3 2 2 1 1 0 -0 -1 -2 -3 -5 -5 -6 -7 -7 -7 -8 -9 -9 -10 -10 -10 -11
10 10 11 12 11 12 12 12 11 14 13 13 12 9 9 8 6 5 5 4 3 2 2 1 1 0 -0 -1 -1 -3 -4 -5 -6 -6 -7 -8 -8 -9 -9 -10 -10 -11 -11 -12
11 11 10 10 12 12 12 13 10 11 11 10 9 10 8 7 6 5 4 4 3 2 1 1 0 -0 -1 -1 -2 -3 -5 -5 -6 -7 -8 -8 -9 -9 -10 -10 -11 -11 -12 -12
10 10 10 11 12 11 10 10 12 10 10 10 9 8 8 7 6 5 4 3 3 2 1 1 -0 -1 -1 -2 -3 -4 -5 -6 -7 -7 -8 -9 -9 -9 -10 -11 -11 -12 -12 -12
8 9 10 10 11 11 10 10 11 13 11 11 9 8 7 6 6 5 4 3 2 2 1 0 -1 -2 -2 -3 -3 -4 -5 -6 -7 -8 -9 -9 -9 -10 -11 -12 -12 -12 -13 -13
9 9 9 10 10 11 10 9 9 11 10 11 9 8 7 6 6 4 3 2 1 0 -1 -1 -2 -2 -3 -3 -4 -5 -6 -7 -8 -9 -9 -10 -10 -11 -11 -12 -12 -13 -13 -14
6 7 8 8 9 11 10 9 9 9 9 9 9 8 7 6 5 5 3 2 1 -0 -1 -2 -2 -3 -4 -4 -5 -6 -7 -7 -8 -9 -9 -10 -11 -11 -12 -12 -13 -13 -13 -14
6 6 7 8 10 9 10 10 9 9 9 8 8 7 6 5 5 4 3 2 1 1 -1 -2 -2 -3 -4 -5 -6 -6 -7 -8 -9 -9 -10 -11 -11 -11 -12 -12 -13 -13 -13 -14
5 5 7 7 9 9 9 10 9 9 9 8 9 8 7 5 4 3 2 1 -0 -1 -2 -2 -3 -4 -5 -6 -6 -7 -8 -8 -9 -10 -10 -11 -11 -12 -12 -13 -13 -13 -13 -14
4 5 6 7 7 7 9 10 9 9 9 8 6 7 6 4 3 1 1 2 -0 -2 -2 -3 -3 -5 -6 -7 -7 -8 -9 -9 -9 -10 -11 -11 -11 -12 -13 -13 -13 -13 -14 -14
3 4 6 7 7 8 7 8 8 8 9 8 7 6 5 5 3 2 1 -1 -1 -1 -2 -3 -4 -5 -6 -7 -8 -9 -9 -9 -10 -10 -11 -11 -12 -13 -13 -13 -13 -13 -14 -14
3 4 5 6 7 6 6 6 7 6 6 6 5 5 6 4 2 1 -0 -1 -1 -2 -2 -4 -5 -6 -7 -7 -8 -9 -9 -10 -10 -11 -11 -12 -13 -13 -13 -13 -13 -14 -14 -15
2 3 2 2 2 3 5 6 5 4 3 2 2 3 4 3 2 0 -1 -2 -3 -3 -4 -5 -6 -7 -7 -8 -9 -9 -9 -10 -11 -11 -12 -12 -13 -13 -13 -13 -14 -14 -15 -15
1 1 0 -0 -0 1 2 3 3 2 2 1 2 2 2 1 -0 -1 -3 -4 -5 -4 -5 -6 -6 -7 -8 -8 -9 -9 -10 -10 -11 -12 -12 -12 -13 -13 -13 -14 -14 -15 -15 -15
-1 -1 -1 -1 -2 -1 -1 -0 0 0 1 3 3 1 0 -1 -2 -2 -4 -6 -4 -5 -6 -6 -7 -7 -8 -9 -9 -9 -10 -11 -11 -12 -12 -13 -13 -13 -13 -14 -15 -15 -15 -15

GFSNGP_850_temp_348.txt.gz
Temp
11 14 12 14 13 10 11 11 12 14 11 13 11 9 8 9 9 9 9 9 9 9 9 8 7 7 7 7 7 6 7 6 6 5 4 4 3 2 1 -0 -1 -2 -3 -4
14 13 12 14 13 11 11 11 12 13 11 11 11 10 8 8 8 8 8 8 8 7 7 6 7 7 6 6 6 5 6 5 5 5 4 3 2 1 -0 -1 -2 -3 -4 -5
12 13 13 10 12 11 11 11 12 12 12 9 8 8 8 8 8 8 8 8 8 8 7 6 6 6 6 5 5 5 5 5 4 3 2 2 1 -0 -1 -2 -3 -4 -5 -5
7 11 9 13 13 13 13 12 11 13 11 11 12 13 11 10 9 8 8 8 7 7 6 6 6 5 5 5 5 5 4 4 4 3 2 1 0 -1 -2 -3 -4 -5 -5 -6
7 9 11 14 14 13 13 13 11 13 11 11 10 10 8 10 10 11 10 8 8 7 6 6 5 5 5 5 4 4 4 4 3 2 1 0 -1 -2 -3 -4 -5 -5 -6 -7
5 9 10 11 14 15 14 12 14 13 9 7 10 8 8 9 9 10 9 9 7 6 6 5 5 5 5 4 4 4 4 3 2 1 -0 -1 -2 -3 -5 -5 -6 -6 -7 -8
4 7 9 10 14 15 13 11 15 14 11 9 9 12 14 10 9 10 10 8 7 6 6 5 5 4 4 4 3 3 2 1 1 -0 -1 -2 -3 -4 -5 -6 -7 -8 -8 -9
4 5 9 14 13 14 13 15 16 15 15 11 11 12 13 10 9 9 8 7 6 6 5 4 4 3 3 3 2 2 1 1 0 -1 -2 -3 -5 -5 -6 -7 -8 -8 -9 -9
8 8 12 14 15 17 17 17 17 17 15 13 11 11 10 9 9 9 8 7 6 6 5 4 3 3 3 3 2 2 1 1 -1 -2 -3 -4 -5 -6 -7 -7 -8 -9 -9 -9
9 11 10 14 14 14 16 17 18 18 17 14 12 11 9 9 8 8 7 6 6 5 4 4 2 2 2 2 2 1 1 -0 -1 -2 -3 -4 -6 -6 -7 -8 -8 -9 -9 -10
7 10 12 13 14 13 13 15 16 17 16 15 12 11 11 9 8 8 7 6 5 5 4 3 2 2 1 1 1 1 -0 -1 -2 -2 -3 -5 -6 -7 -7 -8 -9 -9 -10 -10
6 8 7 9 11 11 14 14 15 17 15 13 13 13 11 9 9 8 7 6 5 4 4 3 2 1 1 1 1 0 -1 -1 -2 -3 -4 -5 -6 -7 -8 -8 -9 -10 -10 -10
6 6 6 9 10 10 11 13 13 14 13 15 11 12 11 10 9 8 7 6 5 4 3 3 2 1 1 1 0 -0 -1 -2 -3 -3 -4 -6 -7 -8 -9 -9 -9 -10 -10 -11
7 6 8 9 9 10 11 12 12 13 12 11 11 10 11 10 8 7 7 6 5 4 3 3 2 1 1 0 -0 -1 -2 -3 -3 -4 -5 -6 -7 -8 -9 -9 -10 -11 -11 -11
8 9 9 9 9 9 10 11 10 11 12 10 9 10 10 9 8 7 6 6 4 3 3 2 1 1 0 -0 -1 -2 -3 -3 -4 -5 -6 -7 -8 -8 -9 -10 -10 -11 -12 -12
6 7 8 8 8 9 9 11 9 9 10 10 9 8 9 8 8 7 6 5 4 3 2 2 1 1 0 -0 -1 -2 -3 -4 -5 -5 -6 -8 -8 -9 -9 -10 -11 -12 -12 -12
4 6 6 8 8 9 8 8 10 9 9 9 7 7 6 6 6 6 5 4 4 3 3 2 1 0 -1 -1 -2 -3 -4 -5 -5 -6 -7 -8 -9 -9 -10 -11 -12 -12 -12 -13
4 5 6 6 7 7 8 8 8 9 8 9 9 7 6 6 6 5 5 3 3 2 2 1 -0 -0 -1 -2 -3 -4 -5 -5 -6 -7 -8 -8 -9 -10 -11 -11 -12 -12 -13 -13
4 4 4 5 7 7 7 8 8 8 8 8 8 7 7 6 5 5 4 3 2 2 1 -0 -1 -1 -2 -2 -3 -4 -5 -6 -7 -7 -8 -9 -10 -11 -11 -11 -11 -12 -13 -13
3 3 3 5 6 6 8 8 8 9 9 9 8 6 6 6 5 5 4 3 3 2 1 0 -1 -2 -2 -3 -4 -4 -5 -6 -7 -8 -8 -9 -10 -11 -11 -11 -12 -12 -13 -13
3 3 4 5 6 7 7 7 8 10 9 9 7 6 7 6 4 4 3 2 2 1 0 -0 -1 -1 -2 -3 -4 -5 -6 -7 -7 -8 -9 -10 -11 -11 -11 -11 -12 -12 -13 -14
2 3 4 5 6 7 7 8 9 8 9 7 6 6 6 5 4 3 3 4 2 0 -0 -1 -1 -2 -3 -3 -4 -5 -6 -7 -8 -8 -9 -10 -11 -11 -11 -12 -12 -13 -14 -14
1 2 3 4 5 6 7 7 7 9 8 7 6 7 6 5 5 4 2 1 1 0 -1 -1 -2 -2 -3 -4 -5 -6 -7 -8 -8 -9 -9 -10 -11 -11 -11 -12 -12 -13 -14 -14
1 2 2 3 4 5 6 6 4 5 6 6 5 6 6 4 2 1 2 2 1 0 -1 -2 -2 -4 -5 -5 -6 -7 -7 -8 -9 -9 -10 -11 -11 -11 -11 -12 -13 -13 -14 -14
1 1 1 2 3 3 2 2 2 2 3 3 3 2 3 3 4 3 2 1 -0 -2 -3 -3 -5 -5 -6 -6 -7 -7 -8 -8 -9 -9 -10 -11 -11 -11 -12 -12 -13 -14 -14 -14
1 1 0 1 0 0 0 -0 0 0 0 1 -0 -0 1 2 2 2 0 -2 -2 -3 -4 -4 -5 -6 -6 -7 -7 -8 -8 -9 -9 -9 -10 -10 -10 -11 -12 -13 -14 -14 -14 -15
-0 -1 -1 -0 -1 -1 -1 -1 -1 -1 -2 -1 0 -0 -1 -1 -0 1 -3 -3 -4 -5 -4 -5 -5 -6 -7 -7 -8 -8 -8 -9 -9 -9 -10 -10 -11 -12 -13 -13 -14 -14 -15 -15

GFSNGP_850_temp_351.txt.gz
Temp
13 15 15 16 15 12 14 16 17 19 16 19 17 14 12 10 8 8 8 9 10 11 11 10 9 8 8 8 7 8 7 7 7 6 5 5 4 4 3 2 1 -1 -2 -3
14 14 14 15 15 14 15 13 16 15 16 16 12 11 9 9 8 7 8 9 10 10 10 9 9 8 7 7 6 6 6 6 6 5 5 4 4 3 2 1 -1 -2 -3 -4
14 13 13 13 14 14 14 14 16 15 18 13 12 11 11 10 8 8 9 9 10 10 9 8 8 7 7 6 6 5 6 5 5 4 4 4 3 2 0 -1 -2 -3 -4 -5
11 12 12 16 14 16 16 15 14 15 16 15 15 12 12 11 10 9 10 10 10 9 8 7 7 6 6 5 5 5 5 5 4 4 3 2 1 0 -1 -2 -3 -4 -5 -5
10 12 13 15 15 15 15 18 15 16 16 14 10 10 11 12 11 11 11 11 10 9 8 7 6 5 5 5 5 4 4 4 3 3 2 1 0 -1 -2 -3 -4 -4 -5 -6
8 11 12 15 16 14 16 16 16 15 16 12 11 15 17 15 10 10 11 11 10 8 7 6 5 5 5 5 4 4 4 3 3 2 1 0 -1 -2 -3 -4 -4 -5 -6 -7
9 11 12 14 13 14 15 17 16 15 13 10 13 15 14 13 9 10 11 10 8 7 7 6 5 5 4 5 4 4 3 3 2 1 0 -1 -2 -2 -3 -4 -5 -6 -7 -8
8 9 11 14 14 15 16 16 16 16 16 13 12 13 13 10 9 9 9 8 7 7 6 5 5 5 4 4 4 3 3 2 2 1 -1 -1 -2 -3 -4 -5 -6 -7 -8 -8
9 12 11 11 12 13 13 13 16 17 18 15 13 12 12 10 8 8 8 8 7 6 5 5 5 4 4 4 3 3 2 1 1 -1 -2 -3 -3 -5 -5 -6 -7 -8 -9 -10
10 11 9 9 10 10 11 11 13 14 16 17 16 12 11 10 8 8 8 7 6 6 5 4 4 4 3 3 3 2 2 0 -1 -2 -2 -3 -4 -5 -6 -6 -7 -8 -9 -10
7 9 9 9 8 8 9 11 12 12 13 15 15 13 12 10 9 8 8 7 7 6 5 4 4 3 2 2 2 1 0 -1 -2 -2 -3 -4 -5 -6 -6 -6 -7 -8 -9 -9
8 8 7 7 6 7 8 9 10 11 11 13 14 14 12 11 10 9 8 7 6 5 5 4 4 3 2 2 1 1 0 -1 -2 -3 -3 -4 -5 -6 -6 -7 -8 -8 -9 -10
8 7 6 6 6 6 7 8 9 10 10 11 11 11 12 11 10 9 8 7 6 6 5 4 3 2 2 1 0 -0 -1 -1 -2 -3 -4 -5 -6 -6 -7 -7 -8 -9 -9 -10
5 5 6 6 6 7 7 8 9 9 9 9 9 10 10 9 8 8 8 8 7 6 5 4 3 2 2 1 0 -1 -1 -2 -3 -3 -4 -5 -6 -6 -7 -8 -9 -10 -10 -11
4 4 5 5 5 6 4 7 8 8 8 9 7 9 9 9 8 8 7 7 6 5 4 4 3 2 1 1 -0 -1 -1 -2 -3 -4 -5 -5 -6 -7 -8 -8 -9 -10 -11 -11
4 4 5 5 5 6 6 7 7 7 6 8 6 8 8 8 7 6 6 7 6 5 4 3 3 2 1 0 -0 -1 -2 -3 -3 -4 -5 -5 -6 -8 -8 -9 -9 -10 -11 -12
3 4 4 4 5 6 6 6 6 7 6 6 6 7 6 6 6 6 6 5 5 5 5 4 3 2 1 -0 -1 -1 -2 -3 -4 -4 -5 -6 -7 -8 -8 -9 -10 -11 -11 -12
2 4 4 4 4 4 5 5 6 6 7 6 6 6 6 6 6 6 5 5 4 4 3 3 2 1 0 -0 -1 -2 -3 -3 -4 -5 -6 -7 -8 -8 -9 -10 -10 -11 -12 -12
2 2 3 3 3 3 4 5 6 7 6 6 5 6 5 7 6 5 4 4 4 3 3 2 1 0 -0 -1 -1 -2 -3 -4 -5 -6 -7 -8 -8 -9 -10 -10 -10 -11 -12 -13
0 2 2 3 3 4 4 5 6 7 7 7 5 7 5 5 6 5 4 4 4 4 3 2 1 -0 -1 -1 -2 -3 -4 -5 -6 -7 -7 -8 -9 -9 -10 -10 -10 -11 -12 -13
-0 1 2 2 4 5 5 5 5 7 7 7 6 7 6 6 8 6 3 2 3 3 2 2 1 -0 -1 -2 -3 -4 -5 -6 -6 -7 -7 -8 -9 -9 -10 -10 -11 -12 -12 -13
-0 1 1 2 3 5 5 5 6 6 6 6 6 5 5 6 5 7 3 4 3 2 1 1 -0 -1 -1 -2 -3 -4 -6 -6 -7 -7 -8 -8 -9 -10 -10 -11 -11 -12 -12 -12
1 1 1 1 2 3 5 6 7 6 6 6 7 7 5 5 6 5 3 3 2 1 1 -0 -1 -2 -2 -3 -4 -5 -6 -6 -7 -7 -8 -8 -9 -10 -10 -11 -12 -12 -12 -12
0 0 0 0 2 3 4 4 5 4 4 4 5 4 5 4 2 1 1 3 1 2 0 -1 -2 -2 -3 -5 -5 -6 -6 -6 -7 -7 -8 -9 -9 -10 -10 -11 -12 -12 -12 -13
1 1 1 0 1 2 3 2 3 2 2 2 2 2 3 3 4 3 1 0 0 1 -1 -2 -2 -3 -5 -6 -6 -6 -6 -7 -7 -7 -8 -9 -9 -10 -11 -11 -12 -12 -12 -13
1 1 1 -0 -1 -0 1 1 0 -0 0 -0 0 0 0 0 1 0 -1 -2 -0 -1 -2 -4 -4 -5 -7 -6 -6 -6 -7 -7 -7 -8 -8 -9 -9 -10 -11 -11 -12 -12 -13 -13
1 1 1 0 -1 -1 -1 -1 -1 -1 -1 -1 -1 -1 -1 -1 -1 -1 -1 -3 -2 -4 -5 -6 -6 -6 -6 -6 -6 -7 -7 -7 -8 -8 -8 -9 -9 -10 -11 -11 -11 -12 -13 -14

GFSNGP_850_temp_354.txt.gz
Temp
19 21 21 21 20 20 17 20 20 21 22 23 24 23 21 18 15 13 11 10 10 9 8 8 8 8 7 6 6 6 6 7 7 7 6 5 5 4 3 3 2 1 -1 -2
17 19 20 19 20 21 20 20 21 21 21 23 22 19 19 17 14 12 12 10 9 8 7 6 6 6 5 5 5 4 5 6 6 6 5 5 4 4 3 2 1 -1 -3 -4
16 18 18 17 19 20 20 20 20 20 22 23 21 19 19 17 14 13 12 11 9 7 7 6 6 6 5 5 4 4 4 6 6 6 5 4 4 3 2 1 -1 -3 -4 -5
15 16 13 19 21 21 21 21 21 21 22 23 21 21 19 17 15 14 12 10 9 7 6 6 5 4 5 4 4 4 5 6 6 5 4 4 3 2 1 -1 -3 -5 -5 -5
13 15 17 19 19 19 19 20 22 21 22 22 20 16 17 16 16 14 12 10 8 7 6 5 4 4 4 3 4 5 6 5 5 4 4 3 2 0 -2 -3 -4 -5 -5 -4
13 13 14 18 20 17 19 19 22 21 22 21 18 19 22 19 15 13 11 9 7 6 6 5 4 4 4 3 5 5 5 4 4 4 3 2 0 -1 -2 -4 -5 -5 -5 -5
12 13 15 18 17 16 16 17 19 20 20 19 18 19 15 15 13 12 10 8 6 6 6 4 4 3 3 4 5 5 4 4 3 2 1 0 -0 -2 -4 -5 -6 -6 -7 -7
12 12 12 13 16 15 12 12 14 16 17 17 17 13 13 13 12 10 9 7 6 5 4 3 3 3 3 3 2 3 4 3 3 2 1 -0 -2 -4 -5 -6 -6 -6 -7 -7
13 13 14 12 12 10 10 10 10 11 13 14 15 13 12 11 10 9 7 6 5 5 4 3 3 3 3 2 2 3 3 2 2 1 -0 -3 -5 -5 -5 -6 -6 -6 -6 -7
11 14 14 12 11 10 9 9 9 10 11 12 13 13 11 10 9 8 7 6 5 5 4 3 3 2 2 3 3 3 2 1 0 -1 -2 -5 -5 -5 -5 -6 -6 -6 -7 -7
11 12 11 12 12 9 8 9 9 8 9 10 11 12 11 10 9 8 6 6 5 4 4 3 2 2 1 3 3 2 1 0 -1 -3 -3 -5 -5 -5 -6 -6 -6 -6 -7 -8
10 11 10 10 10 8 8 8 8 8 8 9 10 10 10 9 8 7 6 5 4 4 3 3 3 1 3 3 2 2 1 0 -2 -3 -4 -5 -5 -6 -5 -6 -6 -7 -8 -9
8 9 8 8 8 8 8 8 8 7 8 7 8 9 9 9 7 7 5 5 4 4 3 3 3 3 3 3 2 2 1 -0 -1 -3 -5 -5 -5 -6 -7 -7 -7 -8 -8 -9
7 6 6 7 7 8 7 8 7 7 8 7 7 8 8 7 6 5 5 4 4 3 2 3 3 4 3 3 2 1 0 0 -1 -4 -5 -5 -6 -6 -6 -7 -8 -10 -9 -10
6 6 6 6 6 7 7 7 7 7 8 7 6 6 6 6 5 4 4 3 3 2 3 4 4 3 3 3 2 1 0 -1 -3 -5 -5 -6 -6 -7 -7 -8 -8 -8 -10 -11
6 6 6 6 6 6 7 7 6 7 7 7 6 5 5 4 4 3 3 2 4 4 4 4 4 4 3 2 1 1 -0 -1 -2 -4 -4 -5 -7 -7 -8 -8 -8 -9 -10 -11
5 5 5 5 5 6 6 7 7 6 6 7 6 5 4 3 3 2 1 1 3 4 5 5 4 3 2 2 1 0 -0 -1 -3 -4 -5 -7 -7 -8 -8 -9 -9 -10 -11 -11
1 2 2 3 4 5 5 6 6 5 5 6 7 5 4 3 2 1 1 2 1 2 3 4 3 3 2 1 0 -0 -1 -2 -3 -4 -6 -6 -8 -9 -9 -10 -10 -11 -12 -12
-1 -0 -0 1 3 4 5 5 5 4 4 5 6 5 4 4 3 2 2 2 3 3 3 3 3 3 2 1 0 -1 -1 -2 -4 -5 -6 -6 -7 -9 -10 -11 -11 -12 -12 -12
-1 -1 -1 -1 0 0 1 2 2 3 4 6 6 6 4 4 2 3 2 5 5 4 3 4 3 2 1 1 -0 -1 -2 -3 -4 -5 -5 -7 -8 -9 -9 -10 -11 -11 -11 -11
-1 -1 -1 -1 -1 -0 1 1 2 3 5 4 6 7 6 4 2 3 2 2 2 3 3 3 2 1 1 0 -1 -2 -3 -4 -5 -5 -6 -7 -7 -8 -10 -10 -10 -10 -11 -12
-1 -1 -1 -0 0 1 1 1 2 4 4 4 5 5 5 3 2 1 1 4 4 5 4 3 1 1 1 -1 -2 -2 -3 -4 -5 -5 -6 -7 -8 -9 -9 -10 -10 -11 -11 -12
1 -0 -1 1 1 1 1 2 3 4 4 5 4 5 5 5 4 2 -1 1 3 2 3 2 1 1 -0 -1 -2 -2 -4 -5 -5 -6 -7 -7 -8 -9 -9 -10 -10 -11 -11 -12
-0 1 1 1 1 1 1 1 1 2 3 2 3 3 3 4 2 1 1 0 1 1 1 1 1 -1 -2 -2 -3 -3 -5 -5 -6 -7 -7 -8 -8 -9 -9 -10 -10 -11 -11 -12
1 1 0 0 -1 -1 0 0 0 1 1 0 0 0 0 2 2 2 2 0 -1 -2 -2 -0 -1 -2 -2 -3 -3 -4 -4 -5 -6 -7 -7 -8 -8 -9 -9 -10 -10 -11 -11 -12
2 2 1 1 -0 0 0 0 -1 -1 -1 -2 -1 -1 1 1 1 -0 -1 -0 -1 -2 -3 -3 -3 -2 -3 -4 -4 -5 -5 -6 -6 -7 -8 -8 -8 -9 -9 -10 -10 -11 -11 -12
1 2 2 2 0 -0 0 -0 -1 -1 -2 -3 -3 -3 -2 -2 -2 -1 -1 -2 -2 -3 -4 -3 -4 -4 -6 -6 -5 -5 -6 -6 -7 -7 -8 -8 -9 -9 -9 -10 -10 -10 -11 -12